{"data":{"norad_id":53780,"epoch":"2026-05-25T03:10:29.799840Z","epoch_age_seconds":70416,"freshness":"FRESH","line1":"1 53780U 22111H   26145.13228935  .00001396  00000+0  10578-3 0  9993","line2":"2 53780  53.2135 291.1504 0001133  89.2935 270.8187 15.08840878205234","mean_motion":15.08840878,"eccentricity":0.0001133,"inclination_deg":53.2135,"raan_deg":291.1504,"arg_perigee_deg":89.2935,"mean_anomaly_deg":270.8187,"bstar":0.00010578,"rev_number":20523,"period_min":95.437499142305,"perigee_km":538.95690972665,"apogee_km":540.52450081466,"semimajor_km":6917.8777052707,"source":"CELESTRAK","updated_at":"2026-05-25T13:38:17.542299Z"}}